Temperature
13 14 14 15 19 20 21 20 20 19 19 18 18 19 21 21 21 19 14 14 15 15 15 16 16 16 16 16 16 16 16 16 16 16 16 16 16 16 16 16 16 16 16 16 16 16 16 16 16
13 14 14 16 20 21 20 20 19 19 18 17 17 18 19 18 16 14 14 14 14 15 15 15 15 16 16 16 16 16 16 16 16 16 16 16 16 16 16 16 16 16 16 16 16 16 16 16 16
13 14 15 18 19 21 21 19 19 18 16 16 17 17 17 16 14 14 13 14 14 15 15 15 15 15 15 16 16 16 16 16 16 16 16 16 16 16 16 16 16 16 16 16 16 16 16 16 16
13 14 16 18 19 19 19 18 18 17 16 16 17 17 15 13 13 13 14 14 14 14 15 15 15 15 15 15 15 15 15 15 15 15 16 16 16 16 16 16 16 16 16 16 16 16 16 16 16
13 15 17 18 18 18 17 17 16 18 17 16 16 17 15 12 12 13 13 14 14 14 14 15 15 15 15 15 15 15 15 15 15 15 15 16 16 16 16 16 16 16 16 16 16 16 15 15 15
13 16 17 18 18 17 17 15 16 17 17 16 16 16 14 12 12 13 13 13 14 14 14 15 15 15 15 15 15 15 15 15 15 15 15 15 15 15 16 15 15 15 15 15 16 15 15 15 15
14 16 17 18 17 16 16 15 16 17 17 15 15 15 14 12 12 12 13 13 13 14 14 14 14 14 15 15 15 15 15 15 15 15 15 15 15 15 15 15 15 15 15 15 15 15 15 15 15
13 16 16 17 17 16 15 14 14 15 15 13 13 15 14 12 12 12 13 13 13 13 14 14 14 14 14 14 15 15 15 15 15 15 15 15 15 15 15 15 15 15 15 15 15 15 15 15 15
12 15 16 16 16 15 14 14 13 12 13 12 12 13 12 12 12 12 12 12 13 13 13 13 13 14 14 14 14 14 15 15 15 15 15 15 15 15 15 15 15 15 15 15 15 15 15 15 15
13 15 15 14 15 15 14 14 13 13 14 13 12 11 11 11 12 12 12 12 12 12 13 13 13 13 13 13 14 14 14 14 14 14 14 15 14 14 14 14 15 15 15 15 14 14 14 14 14
13 14 13 12 12 13 13 12 12 14 14 14 13 11 11 11 11 11 11 11 12 12 12 12 12 12 13 13 13 13 13 14 14 14 14 14 14 14 14 14 14 14 14 14 14 14 14 14 14
12 12 12 12 11 11 12 12 12 12 13 12 11 11 11 11 11 11 11 11 11 11 12 12 12 12 12 12 12 13 13 13 13 14 14 14 14 14 14 14 14 14 14 14 14 14 14 14 14
12 11 11 10 10 11 11 11 11 11 10 10 10 10 11 10 10 10 11 11 11 11 11 11 12 12 12 12 12 12 12 12 13 13 13 13 13 13 14 14 14 14 14 14 14 14 13 13 13
11 11 11 10 10 10 11 11 11 11 10 10 10 10 10 10 10 10 10 10 11 11 11 11 11 11 11 11 11 12 12 12 12 12 13 13 13 13 13 13 13 13 13 13 13 13 13 13 13
10 11 11 11 11 11 11 12 11 10 10 10 10 9 9 9 9 9 10 10 10 10 10 10 11 11 11 11 11 11 11 11 11 12 12 12 12 12 12 12 12 13 13 13 13 13 13 13 13
11 12 12 11 11 10 12 13 12 10 10 10 10 9 9 9 9 9 9 10 10 10 10 10 10 10 10 11 11 11 11 11 11 11 11 11 11 12 12 12 12 12 12 12 13 13 12 12 13
12 12 12 11 11 11 12 12 12 10 10 10 10 9 9 9 9 9 9 9 9 9 10 10 10 10 10 10 10 10 10 10 10 11 11 11 11 11 11 11 11 12 12 12 12 12 12 12 12
12 12 12 12 11 11 11 12 12 10 10 10 10 9 9 8 8 8 9 9 9 9 9 9 9 9 10 10 10 10 10 10 10 10 10 10 11 11 11 11 11 11 11 11 12 12 12 12 12
11 11 11 11 10 10 11 11 12 11 10 10 10 10 9 8 8 8 8 9 9 9 9 9 9 9 9 9 9 9 9 9 9 9 10 10 10 10 10 10 11 11 11 11 11 11 11 11 11
10 11 11 10 10 10 11 11 12 11 10 10 10 10 9 9 8 8 8 8 8 8 8 8 8 8 8 8 8 8 8 9 9 9 9 9 9 10 10 10 10 10 10 10 11 11 11 11 11
10 10 10 10 10 10 10 12 12 11 10 9 9 9 9 8 8 8 8 8 8 8 8 8 8 8 8 8 8 8 8 8 8 8 9 9 9 9 9 10 10 10 10 10 10 10 10 10 11
10 9 9 9 10 11 10 12 13 12 11 10 10 9 9 8 8 7 7 7 8 8 7 7 7 7 7 7 7 7 7 7 8 8 8 8 8 8 9 9 9 9 9 9 10 10 10 10 10
9 8 9 9 9 10 10 11 13 11 11 12 11 10 9 8 7 7 7 7 7 7 7 7 7 7 7 7 7 7 7 7 7 7 7 8 8 8 8 8 8 9 9 9 9 9 9 9 9
8 8 8 9 9 10 11 11 13 13 12 12 11 10 9 8 7 7 7 7 7 7 7 7 6 6 6 6 6 6 6 6 7 7 7 7 7 7 7 7 8 8 8 8 8 8 9 9 9
8 9 10 10 11 12 10 10 12 13 11 11 11 9 8 7 7 7 7 7 7 7 6 6 6 6 6 6 6 6 6 6 6 6 6 6 7 7 7 7 7 7 7 8 8 8 8 8 8
8 9 10 11 12 12 9 10 13 11 9 9 8 8 7 7 7 7 6 6 6 6 6 6 6 6 6 6 6 6 6 6 6 6 6 6 6 6 6 6 7 7 7 7 7 7 7 8 8
8 9 8 9 9 10 12 12 12 10 10 9 8 8 7 7 6 6 6 6 6 6 6 6 5 5 5 5 5 5 5 5 5 6 6 6 6 6 6 6 6 6 6 7 6 7 7 7 7
8 8 8 9 9 11 12 12 13 12 11 10 9 8 8 7 6 6 6 6 6 6 6 5 5 5 5 5 5 5 5 5 5 5 5 5 5 5 5 6 6 6 6 6 6 6 6 6 6
7 7 8 8 9 10 11 13 12 11 11 10 10 8 7 7 6 6 6 6 6 5 5 5 5 5 5 5 5 5 5 5 5 5 5 5 5 5 5 5 5 5 5 5 6 6 6 5 6
7 8 8 9 8 8 10 11 11 10 9 9 8 7 7 6 6 6 6 6 5 5 5 5 5 4 4 4 4 4 4 4 4 4 4 4 4 5 4 4 4 4 5 5 5 5 5 5 5
Wind_Speed
1 1 3 4 6 6 11 7 5 6 5 3 2 3 3 2 1 3 4 4 3 2 3 5 5 5 5 5 6 7 8 7 7 8 8 9 9 9 9 9 9 9 9 10 10 11 12 12 11
1 2 4 4 7 10 9 8 8 6 4 4 3 3 3 3 4 4 3 3 3 3 4 5 7 5 5 5 4 5 6 6 7 7 8 8 8 9 9 9 9 9 9 9 10 11 11 11 11
3 2 5 5 8 11 7 7 8 5 4 4 4 2 2 3 3 3 3 2 3 4 4 6 7 6 5 4 3 3 4 5 6 7 7 8 8 8 9 9 9 10 9 9 10 10 12 12 11
3 4 3 7 11 8 4 5 6 7 5 3 4 5 3 3 2 2 3 2 3 4 5 7 7 6 5 5 4 2 2 2 4 5 7 8 8 8 9 9 8 9 10 10 10 11 11 12 12
2 4 6 8 10 6 3 3 6 7 6 5 5 4 4 3 3 3 3 3 4 4 5 6 8 7 5 4 3 2 1 1 2 4 5 7 9 9 9 9 9 9 10 11 11 11 11 11 11
4 4 7 10 10 6 5 4 6 6 5 5 5 5 4 4 4 4 4 4 4 5 5 5 6 6 5 5 3 2 1 1 1 3 5 7 8 10 10 9 10 10 10 11 12 12 11 12 12
4 5 7 9 8 7 4 4 6 6 6 4 4 5 5 5 3 3 4 4 5 5 5 5 4 3 4 4 4 3 2 2 2 3 3 5 8 9 10 11 11 11 11 11 12 12 12 12 12
2 3 5 7 8 6 5 4 3 4 4 2 2 4 5 4 3 3 4 5 6 6 6 5 5 4 3 3 3 3 3 3 3 3 3 4 6 9 10 12 12 12 12 12 13 13 12 12 13
2 4 6 6 6 5 5 4 2 2 4 2 1 1 4 5 3 3 3 4 6 7 6 6 6 5 5 4 3 3 3 3 4 4 4 5 7 9 10 11 12 13 13 13 13 13 13 13 13
3 5 4 1 1 4 5 3 3 4 5 3 4 4 5 4 3 3 3 4 5 6 7 6 7 6 6 5 4 4 4 4 5 5 5 6 6 7 8 9 11 13 13 14 14 14 14 13 12
2 3 3 1 1 3 4 2 2 5 4 4 5 6 5 4 3 3 3 3 4 5 6 7 7 6 6 4 4 4 4 4 5 5 6 6 6 6 6 7 9 12 13 13 13 14 13 13 11
3 2 2 2 1 2 2 2 1 2 1 2 4 5 4 3 2 2 2 3 4 5 6 7 7 6 6 6 4 4 4 4 4 5 6 5 4 5 5 5 7 8 9 10 10 10 12 13 13
4 3 2 2 3 2 2 2 1 1 1 3 4 4 4 2 2 2 2 3 4 5 6 7 7 7 6 5 4 4 4 4 5 5 5 6 5 6 6 6 6 8 8 9 9 10 11 11 12
4 4 3 1 1 1 2 1 1 2 3 5 5 3 3 2 1 1 2 3 4 5 6 6 7 7 6 5 5 5 5 5 5 5 5 6 6 6 6 6 6 7 8 9 9 10 9 9 9
5 5 4 2 1 1 1 1 2 3 4 5 4 3 3 2 1 1 1 2 4 5 6 7 6 7 7 6 6 5 5 5 4 4 5 6 6 7 7 7 7 7 8 9 9 10 9 8 8
3 4 3 2 0 0 2 3 3 4 5 5 4 3 3 2 1 0 1 2 4 5 6 6 6 7 7 6 6 5 5 5 5 5 5 6 6 7 6 6 7 8 8 8 8 8 8 8 8
3 3 3 2 1 1 3 4 3 4 5 5 5 4 4 3 1 0 1 2 3 5 5 6 7 7 7 7 6 5 5 5 4 4 4 5 6 6 6 6 6 8 7 7 7 8 8 8 9
4 3 2 2 0 2 4 6 5 5 6 6 6 6 5 4 2 1 1 2 3 4 5 6 7 7 7 6 5 5 4 4 4 4 5 6 5 5 5 5 6 7 7 7 7 8 8 7 8
4 4 2 1 1 2 5 8 8 6 7 7 7 7 6 4 3 2 1 2 3 4 5 6 7 7 6 5 5 5 5 5 4 4 5 5 5 5 5 5 6 6 7 8 8 8 8 7 7
3 3 1 0 1 2 4 8 7 6 7 7 7 7 6 5 4 2 2 2 3 4 5 6 6 7 6 6 6 5 6 5 5 4 5 5 5 5 4 5 5 6 6 7 7 7 7 6 6
1 1 1 1 2 2 4 5 4 4 5 6 7 6 6 6 5 4 3 3 4 4 5 5 6 7 7 7 5 5 5 4 4 4 4 5 5 5 5 5 5 5 6 6 7 7 8 7 6
0 0 1 1 2 1 2 3 4 5 6 7 8 7 7 6 5 4 3 4 4 4 5 5 6 6 6 6 5 6 6 6 6 5 5 5 5 5 5 5 5 5 5 6 6 7 7 7 7
1 1 1 1 2 2 3 4 4 4 7 9 8 7 6 5 5 4 4 4 4 4 4 5 5 6 6 5 6 6 6 6 5 5 5 5 4 5 5 5 5 5 5 6 6 7 7 7 7
2 2 2 1 2 4 3 5 4 5 7 6 6 6 6 5 4 4 3 3 3 3 4 4 5 5 5 6 6 6 7 7 6 6 5 4 4 4 5 5 5 5 5 5 6 6 7 7 7
1 1 1 2 3 3 2 5 7 3 4 5 6 5 4 4 3 3 3 3 3 3 4 4 5 5 6 6 6 6 6 6 6 6 5 5 4 4 5 5 5 5 5 5 5 5 6 7 7
1 2 2 2 3 2 3 6 4 1 2 4 5 4 4 4 3 3 3 3 3 3 4 4 5 6 6 6 6 6 6 5 4 5 5 5 5 5 6 6 6 6 6 5 5 5 5 5 6
2 2 1 1 1 4 5 5 6 3 4 5 5 4 4 4 3 3 3 3 3 3 4 4 5 5 6 6 7 6 6 5 5 5 5 5 5 5 6 6 6 6 6 6 6 5 6 6 6
2 2 2 2 2 4 5 5 4 4 4 4 5 5 4 4 4 4 3 3 4 4 4 4 5 5 6 6 6 6 6 6 6 5 5 5 6 5 6 6 6 6 6 6 6 6 6 6 6
4 3 3 2 3 3 4 4 1 3 3 4 4 4 4 5 5 4 4 4 4 4 4 4 5 5 6 6 6 6 6 6 6 5 5 5 6 6 6 5 6 6 6 6 6 6 6 6 6
4 5 5 4 4 4 4 6 1 3 3 4 4 4 4 5 5 5 5 4 4 4 4 4 5 5 5 6 6 6 6 6 6 5 6 6 5 5 5 5 5 5 6 6 6 6 6 6 6
Wind_Direction
264 203 200 192 193 212 222 202 189 172 176 178 176 189 188 173 177 107 84 55 32 61 74 85 88 110 130 143 151 155 156 157 158 159 160 160 162 160 162 163 157 154 149 147 145 142 139 134 132
214 189 186 200 212 211 212 201 192 180 146 140 148 161 151 118 64 86 88 33 25 59 74 77 77 86 103 117 131 149 161 168 171 171 171 170 170 170 170 171 166 163 157 153 151 148 145 142 140
175 198 192 194 215 218 198 186 186 162 148 157 145 133 130 114 101 87 53 34 48 72 71 73 75 76 79 91 117 132 155 173 178 179 180 181 181 179 178 174 174 170 165 162 157 155 153 151 149
186 179 196 211 210 215 204 157 164 156 161 163 156 132 112 69 71 66 55 52 66 65 67 71 67 70 68 69 75 110 154 173 181 187 192 192 192 192 185 179 176 175 172 170 167 164 161 159 159
192 193 194 206 210 201 192 165 168 170 161 161 166 141 119 99 73 75 67 62 65 59 54 61 53 53 50 54 57 51 80 186 202 202 204 205 204 203 197 187 182 179 178 176 176 173 169 166 167
178 202 205 205 198 187 182 180 180 177 162 154 162 148 120 114 87 66 66 64 60 55 46 51 49 43 39 37 35 26 358 329 249 228 221 215 214 211 205 199 192 188 187 185 183 180 177 176 175
199 201 210 202 191 188 174 169 186 180 170 159 160 150 136 130 72 65 71 65 57 47 38 34 27 32 33 26 19 4 342 315 292 262 242 228 221 217 213 206 202 199 197 194 190 188 186 186 183
216 186 190 195 190 182 156 155 166 184 158 121 176 167 153 136 92 78 73 59 49 38 29 21 16 9 358 354 4 356 335 308 286 277 261 242 227 221 219 214 208 204 202 201 197 194 194 192 188
217 203 200 195 192 168 157 159 137 132 142 131 121 110 119 121 121 97 70 45 35 27 18 12 7 2 352 338 331 314 299 292 268 254 248 242 232 226 220 221 211 206 204 204 202 199 199 195 191
203 206 201 183 191 164 161 164 156 168 168 161 138 124 124 130 120 86 52 29 20 12 7 4 1 355 348 340 326 306 291 279 266 260 250 244 242 237 233 218 210 209 207 206 205 202 199 202 200
175 194 165 141 115 152 155 153 184 180 190 187 166 145 138 135 111 83 53 26 11 2 0 357 352 348 344 337 327 314 299 288 272 263 253 250 243 240 234 223 212 215 212 214 207 206 207 210 209
146 141 161 142 118 140 156 160 160 225 211 146 150 147 146 139 115 82 49 23 8 0 357 354 349 345 341 332 322 311 302 295 286 273 261 253 247 244 239 234 223 219 217 217 215 214 212 214 214
141 137 118 104 101 105 121 155 180 206 163 145 146 151 153 140 109 65 43 20 8 2 357 352 347 342 337 329 319 309 301 295 292 282 269 256 249 245 241 241 235 229 225 220 220 219 217 216 217
129 123 115 90 113 121 132 145 187 201 154 148 151 160 155 136 111 74 40 17 7 358 351 347 343 339 334 326 317 309 303 295 292 285 277 262 250 250 246 242 240 237 232 229 225 222 221 220 220
132 126 112 77 104 114 175 219 200 178 164 162 162 166 151 132 125 103 33 6 357 348 343 340 338 338 333 326 317 308 300 292 288 285 282 272 259 253 248 242 239 239 234 231 231 226 223 222 219
148 158 158 110 67 314 231 226 166 168 180 188 181 181 174 161 153 106 9 355 347 339 336 335 337 336 333 327 315 306 300 293 286 283 280 277 268 260 254 247 242 241 238 231 229 226 220 219 220
155 169 169 153 115 207 227 240 203 190 205 213 199 196 192 189 190 205 342 340 337 334 333 335 336 336 331 326 316 305 298 292 287 284 281 279 273 264 257 254 253 245 239 232 229 226 222 221 221
169 177 190 204 161 237 239 250 247 226 219 222 210 203 203 210 219 247 307 326 329 331 332 334 335 335 330 324 317 310 299 293 289 286 284 282 277 268 259 257 255 248 240 235 230 228 223 225 223
153 166 185 250 328 270 250 261 264 242 220 216 208 204 208 216 226 242 285 312 324 332 332 331 333 333 332 329 324 316 311 304 293 288 284 283 279 270 258 256 254 249 238 236 235 231 226 224 220
144 160 161 187 16 283 277 276 267 236 220 215 209 207 211 221 229 245 278 304 316 323 328 327 328 326 326 322 316 302 303 301 298 292 289 288 282 272 266 255 251 249 243 238 236 233 230 227 220
97 192 194 262 323 259 287 267 214 198 204 213 217 217 222 226 236 246 265 290 306 316 321 320 320 319 320 319 313 307 302 295 294 300 298 300 293 282 273 265 260 253 245 242 238 232 233 228 223
217 199 223 237 266 267 283 269 221 198 211 214 213 214 222 227 237 249 266 285 298 310 319 320 321 320 320 319 315 313 306 299 296 298 296 300 296 291 283 272 264 256 248 248 241 234 235 231 228
70 84 202 241 249 260 230 246 242 194 221 215 211 214 222 224 232 247 265 281 293 307 318 322 323 323 324 321 316 312 306 299 295 298 298 302 305 305 302 290 278 265 255 252 245 239 234 232 233
142 131 131 183 232 247 219 236 250 206 213 207 203 209 215 220 233 249 268 281 293 312 321 323 324 327 329 325 319 312 307 301 296 297 300 304 307 309 309 299 285 274 267 259 248 240 234 234 235
197 211 231 216 225 240 164 241 254 240 221 222 216 212 216 223 232 249 268 282 294 310 322 325 326 327 330 326 322 317 310 302 295 296 296 299 301 302 304 296 284 271 264 260 253 247 241 235 234
214 268 277 261 256 279 215 241 259 258 236 233 230 226 225 228 231 244 259 274 286 302 315 321 322 323 326 326 323 320 316 308 301 302 300 296 293 294 300 295 283 271 262 256 249 244 244 241 237
191 193 326 288 284 267 246 259 275 221 225 220 223 226 231 231 235 245 258 272 284 294 304 310 313 317 323 324 322 319 319 316 308 303 300 294 293 290 293 294 282 274 264 253 249 241 240 241 242
305 171 184 211 251 265 263 252 248 219 215 212 221 230 235 234 241 248 254 265 277 287 299 304 309 313 316 320 320 319 319 317 312 303 301 300 297 293 290 294 280 270 266 257 245 241 239 239 242
178 191 214 222 259 263 276 263 225 238 242 236 238 245 245 243 252 257 258 264 271 283 294 299 306 309 313 316 317 318 318 317 314 305 302 300 298 299 295 287 284 272 267 261 251 242 240 238 240
237 225 207 230 233 237 267 274 109 248 254 252 266 267 262 256 261 264 259 259 263 274 286 293 298 301 307 310 313 316 318 315 312 306 305 304 303 301 295 286 283 279 272 265 258 248 243 241 242
Height
1507 1509 1512 1516 1515 1510 1505 1505 1507 1510 1512 1515 1515 1515 1513 1515 1516 1524 1526 1523 1524 1526 1527 1527 1528 1529 1530 1531 1532 1533 1533 1534 1535 1535 1536 1536 1537 1537 1538 1538 1539 1539 1540 1540 1541 1541 1541 1541 1541
1507 1510 1514 1514 1507 1504 1503 1503 1508 1509 1512 1515 1516 1516 1516 1519 1521 1523 1523 1523 1524 1525 1526 1527 1528 1529 1530 1530 1531 1532 1533 1534 1534 1535 1536 1536 1537 1537 1538 1538 1539 1539 1540 1540 1541 1541 1541 1542 1542
1507 1509 1513 1508 1503 1497 1499 1503 1506 1511 1514 1515 1516 1517 1518 1520 1522 1522 1523 1523 1524 1525 1526 1527 1528 1528 1529 1530 1531 1531 1532 1533 1534 1534 1535 1536 1536 1537 1537 1538 1538 1539 1539 1540 1541 1541 1542 1542 1542
1508 1511 1511 1505 1501 1501 1501 1505 1508 1511 1514 1515 1515 1517 1519 1521 1521 1522 1522 1523 1524 1525 1526 1526 1527 1528 1529 1529 1530 1531 1531 1532 1532 1533 1534 1535 1535 1536 1536 1537 1538 1538 1539 1540 1540 1541 1541 1542 1542
1507 1508 1505 1502 1500 1503 1506 1508 1510 1509 1512 1514 1515 1516 1519 1520 1520 1521 1522 1523 1524 1524 1525 1525 1526 1527 1528 1528 1529 1529 1530 1531 1531 1532 1532 1533 1534 1535 1535 1536 1537 1537 1538 1539 1539 1540 1541 1541 1542
1507 1505 1500 1498 1499 1504 1507 1510 1510 1510 1512 1515 1516 1516 1519 1520 1520 1521 1522 1522 1523 1524 1524 1525 1525 1526 1526 1527 1527 1528 1528 1529 1530 1530 1531 1531 1532 1533 1534 1534 1535 1536 1537 1538 1538 1539 1540 1541 1541
1505 1502 1497 1495 1499 1503 1507 1510 1510 1509 1511 1514 1516 1516 1519 1521 1520 1521 1521 1522 1523 1523 1523 1524 1524 1524 1524 1525 1525 1526 1526 1527 1528 1528 1529 1529 1530 1531 1532 1533 1533 1534 1535 1536 1537 1538 1539 1540 1540
1504 1503 1500 1498 1499 1502 1508 1510 1511 1511 1512 1515 1516 1516 1518 1520 1520 1520 1521 1521 1522 1522 1522 1522 1522 1522 1522 1522 1523 1523 1524 1524 1525 1525 1526 1527 1528 1528 1529 1530 1531 1532 1533 1534 1535 1536 1537 1538 1539
1504 1503 1498 1499 1500 1503 1508 1510 1512 1512 1513 1515 1515 1516 1518 1518 1519 1520 1521 1521 1521 1521 1520 1520 1520 1520 1520 1520 1520 1521 1521 1522 1522 1522 1523 1524 1525 1526 1526 1527 1529 1530 1531 1532 1533 1534 1535 1536 1537
1504 1500 1500 1503 1504 1505 1508 1509 1511 1512 1512 1514 1515 1516 1517 1517 1518 1519 1520 1520 1519 1519 1519 1519 1518 1518 1518 1517 1517 1518 1518 1518 1519 1519 1520 1520 1521 1522 1523 1524 1525 1526 1528 1529 1530 1532 1533 1534 1535
1503 1502 1504 1506 1507 1507 1509 1510 1511 1510 1510 1512 1513 1515 1516 1517 1518 1518 1518 1519 1518 1518 1517 1517 1516 1516 1515 1515 1514 1514 1515 1515 1515 1516 1516 1517 1517 1518 1519 1520 1521 1523 1524 1525 1527 1528 1529 1531 1532
1505 1506 1506 1507 1508 1509 1509 1510 1511 1511 1511 1512 1513 1514 1516 1517 1517 1517 1517 1517 1517 1516 1515 1515 1514 1513 1513 1512 1511 1511 1511 1511 1511 1512 1512 1513 1513 1514 1515 1516 1517 1519 1520 1521 1523 1524 1526 1527 1529
1505 1507 1508 1509 1509 1509 1510 1510 1511 1511 1511 1512 1513 1514 1515 1516 1516 1516 1516 1515 1515 1514 1514 1513 1512 1511 1510 1509 1508 1508 1508 1508 1507 1508 1508 1508 1509 1510 1510 1512 1513 1515 1516 1517 1519 1520 1522 1523 1525
1506 1507 1509 1509 1509 1510 1510 1510 1511 1511 1511 1512 1513 1514 1514 1515 1515 1515 1514 1514 1513 1512 1512 1511 1509 1508 1507 1506 1505 1504 1504 1504 1504 1503 1504 1504 1504 1505 1506 1507 1509 1510 1511 1513 1515 1516 1518 1519 1521
1507 1507 1508 1510 1509 1510 1510 1509 1510 1510 1511 1512 1512 1513 1513 1514 1514 1514 1513 1512 1512 1511 1510 1508 1507 1506 1504 1503 1502 1501 1501 1500 1500 1499 1499 1500 1500 1500 1501 1502 1504 1505 1507 1509 1510 1512 1513 1515 1516
1506 1505 1505 1509 1510 1510 1511 1505 1509 1510 1511 1511 1511 1512 1513 1513 1513 1513 1512 1511 1510 1509 1508 1506 1505 1503 1502 1501 1499 1498 1497 1496 1496 1496 1495 1495 1495 1496 1497 1498 1499 1501 1502 1504 1505 1507 1508 1510 1511
1503 1502 1504 1507 1510 1509 1509 1505 1507 1509 1510 1509 1510 1511 1512 1512 1512 1511 1511 1510 1509 1508 1506 1504 1503 1501 1499 1498 1496 1494 1493 1492 1492 1492 1491 1491 1491 1492 1492 1493 1494 1496 1498 1499 1500 1502 1503 1505 1507
1503 1502 1505 1505 1508 1509 1506 1504 1505 1507 1508 1507 1508 1509 1510 1510 1511 1510 1509 1508 1507 1506 1504 1502 1500 1498 1496 1495 1493 1491 1490 1489 1488 1487 1487 1487 1487 1487 1488 1489 1490 1491 1492 1494 1495 1497 1498 1500 1502
1505 1505 1505 1507 1510 1509 1504 1502 1501 1504 1505 1505 1506 1507 1508 1508 1509 1508 1507 1506 1505 1504 1502 1500 1498 1496 1494 1492 1490 1488 1486 1485 1484 1483 1483 1482 1483 1483 1484 1484 1485 1486 1487 1489 1491 1493 1494 1495 1498
1507 1506 1506 1508 1510 1509 1504 1501 1499 1500 1501 1502 1503 1504 1505 1506 1506 1506 1505 1504 1503 1501 1499 1497 1495 1493 1491 1489 1487 1485 1483 1482 1481 1480 1479 1479 1479 1479 1479 1480 1481 1481 1483 1484 1486 1487 1489 1490 1492
1509 1507 1507 1508 1510 1508 1507 1496 1495 1497 1500 1501 1501 1502 1503 1503 1504 1503 1503 1502 1501 1499 1497 1495 1493 1491 1489 1487 1484 1482 1480 1479 1478 1477 1476 1475 1475 1475 1475 1476 1476 1477 1478 1479 1480 1482 1484 1485 1487
1508 1511 1511 1511 1508 1503 1505 1495 1489 1492 1495 1497 1498 1499 1500 1501 1501 1501 1500 1499 1498 1496 1495 1493 1490 1488 1486 1484 1482 1480 1478 1476 1474 1473 1472 1472 1472 1471 1471 1471 1472 1473 1474 1474 1475 1477 1478 1480 1481
1511 1513 1512 1512 1510 1507 1504 1500 1485 1491 1491 1491 1494 1496 1497 1498 1498 1498 1497 1497 1495 1494 1492 1490 1488 1486 1484 1482 1479 1477 1475 1473 1472 1470 1469 1469 1468 1468 1467 1468 1468 1469 1469 1470 1471 1472 1473 1475 1476
1514 1513 1512 1512 1508 1504 1499 1497 1484 1483 1484 1486 1490 1493 1494 1495 1495 1495 1494 1494 1492 1491 1489 1487 1486 1484 1481 1479 1477 1475 1472 1470 1469 1467 1466 1465 1464 1464 1464 1464 1464 1464 1465 1465 1466 1467 1468 1469 1470
1514 1510 1506 1504 1501 1493 1502 1499 1484 1480 1484 1486 1488 1490 1492 1492 1492 1492 1491 1491 1490 1488 1487 1485 1483 1481 1479 1476 1474 1472 1470 1468 1466 1464 1463 1462 1461 1460 1460 1460 1460 1460 1460 1460 1461 1462 1463 1464 1465
1513 1511 1507 1500 1494 1490 1500 1493 1480 1483 1485 1487 1488 1489 1489 1490 1490 1489 1489 1488 1487 1486 1485 1483 1481 1479 1476 1474 1472 1469 1467 1465 1463 1462 1460 1459 1458 1457 1456 1456 1455 1455 1456 1456 1456 1457 1458 1458 1459
1513 1511 1513 1510 1509 1502 1487 1484 1479 1481 1483 1485 1486 1487 1487 1487 1487 1487 1487 1486 1485 1484 1482 1480 1478 1476 1474 1471 1469 1467 1464 1462 1461 1459 1458 1456 1455 1454 1453 1452 1451 1451 1451 1451 1451 1452 1453 1454 1454
1516 1513 1513 1510 1504 1492 1483 1480 1474 1475 1477 1481 1483 1484 1485 1485 1485 1485 1484 1483 1482 1481 1480 1478 1476 1473 1471 1469 1466 1464 1462 1460 1458 1456 1455 1453 1452 1451 1449 1448 1447 1447 1446 1446 1447 1447 1448 1449 1449
1516 1516 1512 1508 1506 1497 1485 1475 1473 1475 1476 1479 1480 1482 1483 1483 1483 1482 1482 1481 1480 1478 1477 1475 1473 1471 1468 1466 1463 1461 1459 1457 1455 1453 1451 1449 1448 1447 1445 1444 1443 1443 1442 1442 1442 1442 1443 1444 1444
1513 1510 1509 1507 1505 1503 1493 1481 1475 1477 1478 1479 1479 1480 1480 1480 1480 1479 1479 1478 1476 1475 1474 1472 1470 1467 1465 1463 1460 1458 1456 1453 1451 1449 1448 1446 1444 1443 1442 1441 1440 1439 1438 1438 1438 1438 1438 1439 1439